Location: Bethel Church
(38.0159°N, 88.7292°W)
Time: 07:35:55
(UTC+00:00)

CZ-2D R/B - Pass Details

Date: 08 December 2021
Orbit: 519 x 535 km, 97.4° (Epoch: 17 January)

Event Time Altitude Azimuth Distance (km) Brightness Sun altitude
Rises 23:07:59 0° 143° (SE) 2,659 6.7 -6.6°
Reaches altitude 10° 23:10:17 10° 132° (SE) 1,771 5.7 -7.0°
Maximum altitude 23:13:36 29° 72° (ENE) 998 4.1 -7.6°
Drops below altitude 10° 23:16:54 10° 12° (NNE) 1,774 5.6 -8.2°
Sets 23:19:12 0° 1° (N) 2,664 6.6 -8.7°
